Tracking 27124 objects as of 31-Mar-2023
HD Live streaming from Space Station
objects crossing your sky now

SL-8 DEB

Track SL-8 DEB now!
10-day predictions


NORAD ID: 21109
Int'l Code: 1991-009K
Perigee: 1,458.6 km
Apogee: 1,737.4 km
Inclination: 74.0 °
Period: 118.0 minutes
Semi major axis: 7968 km
RCS: 0.6993 m2 (medium)
Launch date: February 12, 1991
Source: Commonwealth of Independent States (former USSR) (CIS)
Launch site: PLESETSK MISSILE AND SPACE COMPLEX (PKMTR)

Note: This is SATELLITE DEBRIS
Your satellite tracking list
Your tracking list is empty




NASA's NSSDC Master Catalog

Two Line Element Set (TLE):
1 21109U 91009K   23090.18653181  .00000313  00000-0  29987-2 0  9993
2 21109  74.0284 233.9030 0174959 185.4087 348.2283 12.20388757430143
Source of the keplerian elements: AFSPC